Location: Branson Observatory
(36.6451°N, 93.2213°W)
Time: 08:31:47
(UTC-05:00)

Tiangong 2 - Visible Passes

Search period start: 19 October 2018 00:00
Search period end: 29 October 2018 00:00
Orbit: 384 x 393 km, 42.8° (Epoch: 19 October)

Date Brightness Start Highest point End Pass type
(mag) Time Alt. Az. Time Alt. Az. Time Alt. Az.
19 Oct 2.0 05:46:00 39° SSE 05:46:00 39° SSE 05:48:20 10° SE visible
20 Oct 3.2 06:23:12 14° SW 06:23:24 14° SW 06:25:06 10° S visible
25 Oct 3.4 19:40:34 10° S 19:41:38 13° SSE 19:41:38 13° SSE visible
26 Oct 3.3 20:17:24 10° SW 20:18:41 22° SW 20:18:41 22° SW visible
27 Oct 2.3 19:19:25 10° SSW 19:22:11 28° SE 19:23:18 22° ESE visible
28 Oct 1.3 19:57:17 10° WSW 20:00:08 68° W 20:00:08 68° W visible
